Wind_Speed
8 8 8 8 8 9 9 9 10 11 11 11 11 11 11 11 11 10 10 9 9 8 8 8 7 7 6 6 6 6 6 5 5 5 5 5 5 5 5 5 5 5 5
7 7 7 7 7 8 8 8 9 9 10 10 11 10 11 10 10 10 9 9 8 8 8 8 7 7 6 6 6 6 6 5 5 5 5 5 5 5 5 5 5 5 5
7 6 6 6 6 7 7 8 8 8 9 9 9 10 10 10 10 10 9 9 8 8 8 7 7 7 6 6 6 6 5 5 5 5 4 4 4 4 4 5 4 5 5
6 6 6 6 6 7 7 7 7 8 8 8 8 9 9 9 9 9 8 8 8 8 8 7 7 7 7 7 6 6 6 5 5 5 4 4 4 4 4 4 4 5 5
6 5 5 5 6 6 7 7 7 8 8 8 8 8 8 8 8 8 8 8 8 8 7 7 7 6 6 6 6 6 6 6 5 5 5 4 4 4 4 4 4 5 5
5 5 5 5 5 6 6 6 7 7 8 8 8 8 7 7 7 7 7 7 7 7 7 6 6 6 6 5 5 5 6 6 5 5 4 4 4 4 4 4 4 4 4
5 4 4 5 5 6 6 6 6 7 7 7 7 7 7 6 6 6 7 7 7 7 7 6 6 6 5 5 5 6 6 6 5 5 4 4 4 4 3 4 4 4 4
5 4 4 4 5 5 5 6 6 6 6 6 6 7 6 6 6 6 6 6 7 7 7 6 6 5 6 5 6 6 6 5 5 5 4 4 3 3 3 3 3 3 3
5 4 4 4 4 4 5 5 5 5 5 6 5 6 6 6 6 6 6 6 6 7 7 6 6 5 5 5 6 6 6 5 5 5 4 4 3 3 3 3 3 3 3
5 4 3 3 2 3 3 4 4 4 5 5 5 5 4 5 5 5 6 6 6 6 6 6 6 5 5 6 6 5 5 5 5 4 4 3 3 3 3 3 3 2 2
4 3 2 2 1 1 2 2 3 3 4 4 4 4 3 3 4 4 5 5 5 5 5 6 6 5 5 5 5 5 5 5 5 4 4 3 3 3 3 3 3 2 2
3 3 2 1 1 0 0 1 2 3 4 3 3 3 3 3 4 4 4 4 5 5 5 5 5 5 5 5 5 5 5 4 4 4 4 3 3 3 3 3 3 2 2
3 2 1 1 1 1 1 1 2 3 3 3 2 3 3 3 3 3 3 3 4 4 4 4 5 5 5 5 4 4 4 4 4 4 3 3 3 3 3 3 3 2 2
2 2 1 1 1 2 2 2 2 3 3 3 2 3 4 3 3 3 3 3 4 4 4 4 4 4 4 4 4 4 4 4 4 3 3 3 3 3 3 2 2 2 1
2 1 1 2 2 2 2 2 2 3 4 3 3 4 4 4 3 3 3 3 3 3 3 3 3 3 3 3 3 3 3 3 3 3 3 3 3 2 2 2 2 1 1
3 2 2 3 3 2 3 2 2 3 3 3 4 4 4 4 4 3 4 4 4 4 3 3 3 3 2 2 3 2 2 2 2 2 2 2 2 2 2 1 1 1 0
4 4 3 3 3 3 2 2 2 3 3 3 4 4 4 4 4 4 4 4 4 4 3 3 3 3 2 2 2 1 1 1 1 1 1 1 1 1 1 1 1 0 1
5 5 4 4 4 3 2 2 2 3 3 4 4 5 5 5 5 5 5 5 4 4 4 4 4 3 3 2 1 1 1 1 0 0 0 1 1 1 1 1 1 1 1
7 6 5 5 4 3 2 2 3 2 3 4 4 5 5 5 6 6 5 5 5 5 5 4 5 4 4 3 3 3 2 2 2 2 1 1 1 1 2 2 2 2 2
8 7 7 5 4 3 3 4 4 4 4 5 6 6 5 5 6 6 6 6 6 6 6 6 6 5 5 4 4 4 4 4 4 3 3 3 3 3 3 3 3 3 3
8 8 7 6 4 3 4 5 5 5 5 5 6 6 6 6 6 7 7 7 7 7 7 7 7 7 6 6 6 6 6 5 5 5 5 5 5 5 4 4 4 4 4
9 9 8 7 6 5 5 6 7 6 5 5 6 7 7 6 7 8 8 9 8 8 8 8 8 8 8 7 7 7 7 7 7 7 7 7 6 6 6 6 6 6 6
9 9 9 8 7 6 6 6 7 7 5 6 6 7 7 8 8 9 9 10 10 10 10 10 10 10 9 9 9 9 9 9 9 9 9 9 8 8 8 8 8 8 8
10 10 10 10 9 7 6 6 6 7 7 6 6 7 7 8 9 10 10 10 10 10 11 11 11 11 11 11 11 11 11 11 11 11 11 11 11 11 11 10 10 10 10
11 11 11 11 10 9 8 8 8 7 8 8 8 8 8 9 10 10 11 11 12 12 13 13 12 13 13 14 14 13 13 13 13 13 13 13 13 13 13 13 13 13 13
12 11 11 12 11 10 9 8 9 9 9 9 9 9 10 10 10 11 12 13 14 14 15 15 15 14 15 15 15 16 16 15 16 16 15 16 16 16 16 16 16 16 16
Wind_Direction
105 106 108 111 115 115 114 112 109 106 103 99 97 96 95 93 91 88 87 87 89 90 91 90 89 88 88 88 86 86 84 81 83 86 86 89 95 96 94 96 102 106 107
112 114 116 116 118 117 117 114 111 109 105 102 101 100 97 94 91 89 88 89 90 92 93 91 90 87 87 85 84 85 84 82 83 85 89 93 99 100 101 100 102 110 115
116 117 119 121 123 122 120 117 114 110 106 104 104 103 101 97 93 91 90 91 91 92 92 91 89 87 86 83 83 84 83 82 83 83 87 89 98 101 108 108 109 114 116
118 119 125 129 130 127 122 118 117 114 110 108 108 106 104 100 97 96 94 94 92 91 91 91 89 86 84 84 84 85 84 84 82 82 84 86 98 106 113 117 117 117 120
123 124 132 137 137 133 125 118 118 116 111 108 108 108 105 102 98 97 98 97 93 91 91 90 89 87 86 85 83 85 85 82 82 84 85 87 97 107 117 120 122 121 123
121 130 138 141 141 137 129 124 122 118 114 110 107 105 104 102 99 97 99 99 98 92 90 88 87 87 86 84 83 84 85 85 84 84 88 92 100 108 116 124 128 126 126
113 126 137 144 143 138 133 132 126 121 117 113 110 107 106 105 102 98 98 98 97 95 92 91 89 88 87 90 87 85 86 84 83 85 88 90 99 109 117 128 132 130 132
107 120 133 145 149 142 137 135 128 125 122 118 114 111 109 110 106 102 101 97 96 97 95 96 94 91 94 95 89 88 86 84 85 87 88 90 95 102 109 128 133 139 138
109 118 133 146 147 144 140 139 138 133 130 126 120 115 111 111 109 105 103 98 98 98 98 98 99 97 96 97 93 88 85 85 86 89 91 92 94 102 104 113 126 135 140
109 117 128 137 130 129 140 143 148 146 144 140 131 124 117 119 113 107 104 99 96 97 100 99 99 97 94 96 93 89 89 89 85 87 91 97 103 101 102 103 113 120 135
109 110 126 132 127 117 135 159 162 160 159 157 151 140 133 136 124 114 111 105 99 101 103 102 100 96 96 96 95 91 95 93 85 83 87 94 102 105 105 101 100 109 148
105 104 115 105 79 42 347 198 191 177 173 168 165 156 146 149 131 122 119 113 108 108 107 104 102 99 100 97 100 99 98 92 85 79 81 85 100 112 114 106 96 95 129
94 91 85 63 27 350 324 280 212 197 193 181 172 170 159 152 137 132 130 124 122 120 115 110 112 108 105 100 102 102 96 91 83 76 78 86 98 108 112 103 99 97 125
77 79 45 13 328 330 321 311 238 213 204 198 192 193 179 157 153 151 154 144 135 131 126 121 118 119 117 105 105 104 95 88 82 79 80 85 93 99 105 102 98 101 111
48 47 2 331 299 303 309 296 253 231 224 227 216 201 187 180 172 175 172 165 158 152 147 140 131 131 125 111 103 110 102 82 75 78 81 83 86 84 91 97 92 88 89
21 1 334 327 302 293 301 289 271 247 244 250 216 199 198 198 199 196 195 184 175 168 166 160 150 138 134 126 114 115 106 79 70 68 82 83 80 70 76 92 110 87 73
1 342 325 315 307 295 293 286 264 248 252 255 227 215 213 210 210 202 202 191 182 174 174 177 173 164 160 149 133 138 143 105 74 66 78 72 72 65 57 45 19 13 352
356 340 324 313 306 299 289 302 271 245 242 241 232 223 223 223 222 213 214 205 197 193 193 193 194 193 185 181 187 201 208 238 261 343 54 47 51 32 13 354 331 326 327
346 338 323 310 309 291 283 296 285 251 235 234 231 229 232 234 228 224 221 214 209 207 213 215 217 219 223 224 229 229 232 251 264 258 258 277 298 314 327 326 316 296 298
347 344 339 319 291 278 268 276 278 264 253 244 236 236 240 235 228 224 222 220 219 223 227 229 231 232 239 243 240 240 240 256 264 264 267 276 280 287 298 305 300 296 292
345 341 336 333 314 299 276 273 278 270 260 246 243 242 242 242 232 228 230 228 226 230 234 239 242 243 247 252 255 254 249 254 258 265 270 278 281 284 290 291 289 288 287
340 336 333 331 320 303 292 281 276 269 259 247 244 243 243 244 239 234 236 235 234 236 238 243 246 249 251 253 257 258 258 254 255 260 268 271 276 279 284 285 283 281 282
327 326 327 330 321 306 296 290 275 264 262 251 248 248 249 249 247 246 245 242 243 244 245 246 250 251 254 255 259 262 264 258 255 259 264 265 269 272 276 279 279 277 276
318 319 322 320 313 308 303 304 291 263 255 255 253 256 258 257 255 253 250 247 247 248 249 251 254 254 255 257 259 262 264 260 257 260 263 265 266 269 272 275 277 276 275
318 310 310 311 307 303 294 291 285 274 261 260 259 259 264 264 260 255 254 252 252 252 252 255 258 258 258 260 260 260 262 261 260 260 261 264 266 267 269 271 273 275 275
320 311 306 309 305 301 291 283 279 272 268 269 266 266 270 268 262 258 259 260 259 258 259 260 264 263 264 263 261 260 261 261 262 263 262 264 266 268 269 270 271 273 273
Height
5899 5899 5900 5900 5900 5900 5900 5900 5900 5900 5900 5900 5899 5899 5899 5899 5899 5899 5899 5899 5899 5900 5899 5899 5900 5900 5900 5900 5900 5900 5900 5900 5900 5899 5899 5899 5899 5899 5898 5898 5898 5898 5898
5901 5900 5901 5901 5901 5901 5901 5901 5901 5901 5901 5900 5900 5900 5900 5900 5900 5900 5900 5900 5900 5900 5900 5900 5901 5901 5901 5901 5901 5901 5901 5901 5900 5900 5900 5900 5900 5900 5899 5899 5899 5899 5899
5902 5902 5902 5902 5902 5902 5902 5902 5902 5902 5902 5901 5901 5901 5901 5901 5901 5901 5901 5901 5901 5901 5901 5901 5902 5902 5902 5902 5902 5902 5901 5901 5901 5901 5901 5900 5900 5900 5900 5900 5900 5900 5900
5902 5903 5903 5903 5903 5903 5903 5903 5903 5903 5902 5902 5902 5902 5902 5902 5902 5902 5902 5902 5902 5902 5902 5902 5902 5902 5903 5902 5903 5902 5902 5902 5902 5902 5902 5901 5901 5901 5901 5901 5901 5901 5901
5903 5903 5904 5904 5904 5904 5904 5903 5903 5903 5903 5903 5903 5903 5903 5903 5902 5902 5903 5903 5903 5903 5903 5903 5903 5903 5903 5903 5903 5903 5903 5903 5903 5903 5902 5902 5902 5902 5902 5902 5902 5902 5902
5904 5904 5904 5905 5905 5905 5904 5904 5904 5904 5904 5904 5904 5903 5903 5903 5903 5903 5904 5904 5904 5904 5904 5904 5904 5904 5904 5904 5904 5904 5904 5904 5904 5903 5903 5903 5903 5903 5903 5903 5903 5903 5904
5904 5905 5905 5905 5905 5905 5905 5905 5905 5905 5905 5905 5904 5904 5904 5904 5904 5904 5904 5904 5904 5904 5905 5905 5905 5905 5905 5905 5905 5905 5905 5904 5904 5904 5904 5904 5904 5904 5904 5904 5904 5904 5904
5905 5905 5905 5906 5906 5906 5906 5906 5906 5906 5905 5905 5905 5905 5905 5905 5905 5905 5905 5905 5905 5905 5905 5905 5905 5906 5906 5906 5905 5905 5905 5905 5905 5905 5905 5905 5905 5904 5905 5905 5905 5905 5905
5905 5906 5906 5906 5906 5906 5906 5906 5906 5906 5906 5906 5906 5906 5905 5905 5905 5906 5906 5906 5906 5906 5906 5906 5906 5906 5906 5906 5906 5906 5906 5906 5906 5906 5905 5905 5905 5905 5905 5905 5905 5905 5905
5906 5906 5906 5907 5907 5906 5906 5906 5906 5906 5906 5906 5906 5906 5906 5906 5906 5906 5906 5906 5906 5906 5906 5907 5907 5907 5907 5907 5907 5907 5907 5907 5907 5906 5906 5906 5906 5906 5905 5905 5906 5906 5906
5907 5907 5907 5907 5907 5907 5906 5906 5906 5906 5906 5906 5906 5906 5906 5906 5906 5906 5906 5907 5907 5907 5907 5908 5908 5908 5908 5908 5908 5908 5908 5908 5907 5907 5907 5906 5906 5906 5906 5906 5906 5906 5906
5907 5907 5907 5907 5907 5907 5906 5906 5906 5906 5906 5906 5906 5906 5906 5906 5906 5907 5907 5907 5907 5908 5908 5908 5908 5908 5908 5908 5908 5909 5909 5908 5908 5908 5907 5907 5907 5907 5906 5907 5906 5906 5906
5908 5908 5908 5908 5907 5907 5907 5906 5906 5906 5906 5906 5906 5906 5906 5906 5906 5907 5907 5907 5908 5908 5908 5908 5908 5909 5909 5909 5909 5909 5909 5909 5909 5908 5908 5908 5908 5907 5907 5907 5907 5907 5907
5908 5908 5908 5908 5907 5907 5906 5906 5906 5906 5906 5906 5905 5906 5906 5906 5907 5907 5907 5907 5908 5908 5909 5909 5909 5909 5909 5910 5910 5910 5910 5910 5909 5909 5908 5908 5908 5908 5908 5908 5908 5908 5907
5909 5908 5908 5907 5907 5906 5906 5906 5906 5905 5905 5905 5905 5905 5906 5906 5907 5907 5907 5907 5908 5908 5909 5909 5909 5909 5910 5910 5910 5910 5910 5910 5910 5910 5909 5909 5909 5908 5908 5908 5908 5908 5908
5909 5908 5907 5907 5906 5906 5905 5905 5905 5905 5905 5905 5905 5905 5905 5906 5906 5907 5907 5907 5908 5908 5908 5909 5909 5910 5910 5910 5910 5910 5911 5911 5910 5910 5909 5909 5909 5909 5909 5908 5908 5908 5908
5909 5908 5906 5906 5905 5905 5904 5904 5904 5904 5904 5904 5904 5905 5905 5905 5906 5906 5907 5907 5907 5908 5908 5909 5909 5910 5910 5910 5910 5911 5911 5911 5911 5910 5910 5909 5909 5909 5909 5909 5908 5908 5908
5908 5907 5906 5905 5904 5904 5904 5903 5903 5903 5903 5903 5904 5904 5904 5905 5905 5906 5906 5907 5907 5907 5908 5909 5909 5909 5910 5910 5910 5911 5911 5911 5911 5910 5910 5909 5909 5909 5909 5908 5908 5908 5908
5908 5906 5905 5904 5903 5903 5903 5902 5902 5902 5902 5902 5903 5903 5903 5904 5904 5905 5906 5906 5906 5907 5907 5908 5909 5909 5909 5910 5910 5910 5910 5910 5910 5910 5910 5909 5909 5909 5908 5908 5908 5908 5907
5907 5905 5904 5903 5902 5902 5901 5901 5901 5901 5901 5901 5902 5902 5902 5902 5903 5904 5904 5905 5905 5906 5907 5907 5908 5908 5909 5909 5909 5910 5910 5909 5909 5909 5909 5909 5908 5908 5908 5907 5907 5907 5906
5906 5905 5903 5902 5902 5901 5900 5900 5900 5900 5900 5900 5900 5901 5901 5901 5902 5902 5903 5904 5904 5905 5906 5906 5907 5907 5908 5908 5909 5909 5908 5908 5908 5908 5908 5908 5908 5907 5907 5907 5906 5906 5906
5906 5905 5903 5902 5901 5900 5899 5899 5899 5899 5898 5899 5899 5899 5899 5900 5900 5901 5902 5902 5903 5904 5904 5905 5906 5906 5907 5907 5907 5907 5907 5908 5907 5907 5907 5907 5907 5906 5906 5906 5905 5905 5904
5905 5903 5902 5901 5900 5899 5898 5897 5897 5897 5897 5897 5898 5898 5898 5898 5899 5899 5900 5900 5901 5902 5903 5903 5904 5904 5905 5905 5905 5905 5905 5905 5905 5905 5905 5905 5905 5905 5904 5904 5904 5903 5903
5904 5902 5901 5900 5899 5897 5896 5896 5895 5896 5896 5896 5896 5896 5896 5896 5897 5897 5898 5899 5899 5900 5901 5901 5902 5902 5903 5903 5903 5903 5903 5902 5903 5903 5903 5903 5902 5902 5902 5902 5901 5901 5900
5903 5901 5900 5898 5897 5896 5895 5894 5894 5894 5894 5894 5894 5895 5895 5895 5895 5896 5896 5896 5897 5898 5898 5899 5899 5899 5900 5900 5900 5900 5900 5900 5900 5900 5900 5900 5900 5899 5899 5899 5898 5898 5897
5901 5899 5898 5896 5895 5894 5893 5893 5892 5892 5892 5892 5892 5893 5893 5893 5893 5894 5894 5894 5895 5895 5895 5895 5896 5896 5896 5896 5897 5897 5897 5897 5897 5896 5896 5896 5896 5896 5895 5895 5895 5894 5894